Tracking 17265 objects as of 4-September-2015
HD Live streaming from Space Station

Track Soyuz TMA-18M
and Space Station

ATLAS CENTAUR R/B

Track ATLAS CENTAUR R/B now!
ATLAS CENTAUR R/B is classified as:


NORAD ID: 10976
Int'l Code: 1978-068B
Perigee: 645.3 km
Apogee: 36,212.0 km
Inclination: 21.8 °
Period: 647.8 minutes
Semi major axis: 24799 km
RCS: 16.8333 m2 (large)
Launch date: June 29, 1978
Source: United States (US)

Note: This is a ROCKET BODY
Your satellite tracking list
Your tracking list is empty





NASA's NSSDC Master Catalog

Two Line Element Set (TLE):
1 10976U 78068B   15245.47667178 -.00000136 +00000-0 +84122-4 0  9997
2 10976 021.8312 067.2486 7170810 218.6861 045.0963 02.22297204298535

Source of the keplerian elements: AFSPC

N2YO: 539